Annapolis Naval Academy, MD

12:28 AM EDT on August 17, 2017 (GMT -0400)
Annapolis Naval Academy

Weather History for KNAK - May, 2014

Change the Weather History Date:

Saturday, May 31, 2014

  Actual Average (KBWI) Record (KBWI)
Temperature  
Mean Temperature 68 °F -  
Max Temperature 75 °F 79 °F 97 °F (2011)
Min Temperature 61 °F 58 °F 40 °F (1996)
Cooling Degree Days 3    
Growing Degree Days 18 (Base 50)    
Moisture  
Dew Point 51 °F    
Average Humidity 57    
Maximum Humidity 84    
Minimum Humidity 34    
Precipitation  
Precipitation 0.00 in - - ()
Sea Level Pressure  
Sea Level Pressure 30.18 in    
Wind  
Wind Speed 7 mph (NNE)    
Max Wind Speed 17 mph    
Max Gust Speed 24 mph    
Visibility 10 miles    
Events      
Averages and records for this station are not official NWS values.
T = Trace of Precipitation, MM = Missing Value Source: NWS Daily Summary

Daily Weather History Graph

Daily Weather History Graph

Search for Another Location

Airport or City:

Trip Planner

Search our weather history database for the weather conditions in past years. The results will help you decide how hot, cold, wet, or windy it might be!

Date:

Astronomy

May. 31, 2014 Rise Set
Actual Time 5:42 AM EDT 8:24 PM EDT
Civil Twilight 5:11 AM EDT 8:56 PM EDT
Nautical Twilight 4:32 AM EDT 9:35 PM EDT
Astronomical Twilight 3:47 AM EDT 10:20 PM EDT
Moon 8:17 AM EDT (5/31) 10:42 PM EDT (5/31)
Length of Visible Light 15h 45m
Length of Day
14h 42m
Waxing Crescent, 8% of the Moon is Illuminated
May 31
Waxing Crescent
Jun 5
First Quarter
Jun 13
Full
Jun 19
Last Quarter
Jun 27
New

Hourly Weather History & Observations

Time (EDT) Temp. Dew Point Humidity Pressure Visibility Wind Dir Wind Speed Gust Speed Precip Events Conditions
12:54 AM 64.0 °F 57.0 °F 78% 30.10 in 8.0 mi WNW 6.9 mph - N/A   Mostly Cloudy
1:54 AM 66.0 °F 57.9 °F 75% 30.11 in 10.0 mi NW 5.8 mph - N/A   Mostly Cloudy
2:54 AM 63.0 °F 57.9 °F 84% 30.11 in 8.0 mi Calm Calm - N/A   Clear
3:54 AM 64.9 °F 55.0 °F 70% 30.12 in 10.0 mi North 8.1 mph - N/A   Clear
4:54 AM 64.0 °F 53.1 °F 67% 30.13 in 10.0 mi North 6.9 mph - N/A   Clear
5:54 AM 63.0 °F 54.0 °F 72% 30.15 in 10.0 mi NW 4.6 mph - N/A   Clear
6:54 AM 61.0 °F 55.9 °F 83% 30.16 in 10.0 mi NNW 4.6 mph - N/A   Clear
7:54 AM 64.0 °F 53.1 °F 67% 30.17 in 10.0 mi NW 5.8 mph - N/A   Clear
8:54 AM 68.0 °F 52.0 °F 56% 30.19 in 10.0 mi North 8.1 mph - N/A   Clear
9:54 AM 70.0 °F 48.9 °F 47% 30.18 in 10.0 mi NNW 9.2 mph - N/A   Clear
10:54 AM 71.1 °F 45.0 °F 39% 30.18 in 10.0 mi North 11.5 mph - N/A   Clear
11:54 AM 72.0 °F 45.0 °F 38% 30.17 in 10.0 mi North 10.4 mph 24.2 mph N/A   Partly Cloudy
12:54 PM 73.0 °F 45.0 °F 37% 30.17 in 10.0 mi North 13.8 mph 21.9 mph N/A   Clear
1:54 PM 73.0 °F 45.0 °F 37% 30.16 in 10.0 mi Variable 4.6 mph 16.1 mph N/A   Clear
2:54 PM 75.0 °F 45.0 °F 34% 30.17 in 10.0 mi NE 10.4 mph - N/A   Scattered Clouds
3:54 PM 73.9 °F 46.0 °F 37% 30.17 in 10.0 mi NNE 9.2 mph 18.4 mph N/A   Clear
4:54 PM 73.9 °F 46.9 °F 38% 30.17 in 10.0 mi ENE 10.4 mph - N/A   Clear
5:54 PM 73.9 °F 46.0 °F 37% 30.18 in 10.0 mi ENE 9.2 mph - N/A   Clear
6:54 PM 73.9 °F 45.0 °F 35% 30.19 in 10.0 mi ENE 4.6 mph - N/A   Clear
7:54 PM 71.1 °F 53.1 °F 53% 30.20 in 10.0 mi East 5.8 mph - N/A   Clear
8:54 PM 68.0 °F 55.9 °F 65% 30.22 in 10.0 mi ESE 11.5 mph - N/A   Clear
9:54 PM 66.0 °F 54.0 °F 65% 30.26 in 10.0 mi SSE 9.2 mph - N/A   Clear
10:54 PM 64.9 °F 55.0 °F 70% 30.27 in 10.0 mi SE 17.3 mph - N/A   Clear
11:54 PM 64.0 °F 55.0 °F 73% 30.29 in 10.0 mi SE 13.8 mph - N/A   Clear